Time,TemperatureF,DewpointF,PressureIn,WindDirection,WindDirectionDegrees,WindSpeedMPH,WindSpeedGustMPH,Humidity,HourlyPrecipIn,Conditions,Clouds,dailyrainin,SoftwareType,DateUTC
2013-07-30 00:13:00,58.5,55.0,30.23,East,90,0.0,0.0,87,0.00,,,0.00,weatherlink.com 1.10,2013-07-30 05:13:00,
2013-07-30 00:28:00,58.0,55.0,30.23,East,90,0.0,0.0,88,0.00,,,0.00,weatherlink.com 1.10,2013-07-30 05:28:00,
2013-07-30 00:43:00,57.9,55.0,30.23,East,90,0.0,1.0,89,0.00,,,0.00,weatherlink.com 1.10,2013-07-30 05:43:00,
2013-07-30 00:58:00,58.5,55.0,30.22,East,90,0.0,0.0,88,0.00,,,0.00,weatherlink.com 1.10,2013-07-30 05:58:00,
2013-07-30 01:13:00,57.5,54.0,30.23,East,90,0.0,0.0,89,0.00,,,0.00,weatherlink.com 1.10,2013-07-30 06:13:00,
2013-07-30 01:28:00,57.5,54.0,30.23,East,90,0.0,0.0,89,0.00,,,0.00,weatherlink.com 1.10,2013-07-30 06:28:00,
2013-07-30 01:43:00,57.3,55.0,30.22,East,90,1.0,2.0,90,0.00,,,0.00,weatherlink.com 1.10,2013-07-30 06:43:00,
2013-07-30 01:58:00,57.1,54.0,30.22,East,91,0.0,4.0,88,0.00,,,0.00,weatherlink.com 1.10,2013-07-30 06:58:00,
2013-07-30 02:13:00,56.1,54.0,30.22,East,92,0.0,0.0,91,0.00,,,0.00,weatherlink.com 1.10,2013-07-30 07:13:00,
2013-07-30 02:28:00,56.3,54.0,30.23,East,92,0.0,1.0,90,0.00,,,0.00,weatherlink.com 1.10,2013-07-30 07:28:00,
2013-07-30 02:43:00,55.9,54.0,30.23,East,92,1.0,2.0,92,0.00,,,0.00,weatherlink.com 1.10,2013-07-30 07:43:00,
2013-07-30 02:58:00,55.7,53.0,30.22,East,92,0.0,0.0,91,0.00,,,0.00,weatherlink.com 1.10,2013-07-30 07:58:00,
2013-07-30 03:13:00,55.9,53.0,30.22,East,92,0.0,1.0,91,0.00,,,0.00,weatherlink.com 1.10,2013-07-30 08:13:00,
2013-07-30 03:28:00,55.1,53.0,30.22,East,92,0.0,1.0,91,0.00,,,0.00,weatherlink.com 1.10,2013-07-30 08:28:00,
2013-07-30 03:43:00,55.1,53.0,30.22,East,92,0.0,0.0,91,0.00,,,0.00,weatherlink.com 1.10,2013-07-30 08:43:00,
2013-07-30 03:58:00,54.5,53.0,30.23,East,92,0.0,0.0,93,0.00,,,0.00,weatherlink.com 1.10,2013-07-30 08:58:00,
2013-07-30 04:13:00,54.2,52.0,30.22,East,92,0.0,0.0,93,0.00,,,0.00,weatherlink.com 1.10,2013-07-30 09:13:00,
2013-07-30 04:28:00,55.2,53.0,30.22,East,92,1.0,2.0,92,0.00,,,0.00,weatherlink.com 1.10,2013-07-30 09:28:00,
2013-07-30 04:43:00,55.1,53.0,30.22,ESE,113,0.0,2.0,92,0.00,,,0.00,weatherlink.com 1.10,2013-07-30 09:43:00,
2013-07-30 04:58:00,55.2,53.0,30.22,ESE,113,0.0,2.0,92,0.00,,,0.00,weatherlink.com 1.10,2013-07-30 09:58:00,
2013-07-30 05:13:00,55.3,53.0,30.22,ESE,103,0.0,2.0,93,0.00,,,0.00,weatherlink.com 1.10,2013-07-30 10:13:00,
2013-07-30 05:28:00,55.7,54.0,30.23,ESE,103,0.0,1.0,93,0.00,,,0.00,weatherlink.com 1.10,2013-07-30 10:28:00,
2013-07-30 05:43:00,55.0,53.0,30.23,ESE,103,0.0,1.0,93,0.00,,,0.00,weatherlink.com 1.10,2013-07-30 10:43:00,
2013-07-30 05:58:00,55.6,54.0,30.24,ESE,103,0.0,3.0,93,0.00,,,0.00,weatherlink.com 1.10,2013-07-30 10:58:00,
2013-07-30 06:13:00,56.5,55.0,30.24,ESE,103,1.0,3.0,93,0.00,,,0.00,weatherlink.com 1.10,2013-07-30 11:13:00,
2013-07-30 06:28:00,57.1,55.0,30.23,ESE,103,0.0,0.0,92,0.00,,,0.00,weatherlink.com 1.10,2013-07-30 11:28:00,
2013-07-30 06:43:00,57.1,55.0,30.23,ESE,103,0.0,1.0,93,0.00,,,0.00,weatherlink.com 1.10,2013-07-30 11:43:00,
2013-07-30 06:58:00,59.0,57.0,30.24,ESE,103,0.0,1.0,92,0.00,,,0.00,weatherlink.com 1.10,2013-07-30 11:58:00,
2013-07-30 07:14:00,60.1,58.0,30.23,SE,129,0.0,4.0,91,0.00,,,0.00,weatherlink.com 1.10,2013-07-30 12:14:00,
2013-07-30 07:29:00,61.7,59.0,30.23,SE,129,0.0,1.0,89,0.00,,,0.00,weatherlink.com 1.10,2013-07-30 12:29:00,
2013-07-30 07:44:00,62.7,59.0,30.24,SE,129,2.0,3.0,88,0.00,,,0.00,weatherlink.com 1.10,2013-07-30 12:44:00,
2013-07-30 07:59:00,63.3,59.0,30.24,SE,134,3.0,4.0,86,0.00,,,0.00,weatherlink.com 1.10,2013-07-30 12:59:00,
2013-07-30 08:14:00,65.1,60.0,30.24,SE,134,1.0,3.0,84,0.00,,,0.00,weatherlink.com 1.10,2013-07-30 13:14:00,
2013-07-30 08:29:00,67.0,61.0,30.24,SE,134,2.0,3.0,82,0.00,,,0.00,weatherlink.com 1.10,2013-07-30 13:29:00,
2013-07-30 08:44:00,68.0,62.0,30.24,SSE,150,1.0,5.0,80,0.00,,,0.00,weatherlink.com 1.10,2013-07-30 13:44:00,
2013-07-30 08:59:00,69.9,62.0,30.24,SSE,147,2.0,6.0,75,0.00,,,0.00,weatherlink.com 1.10,2013-07-30 13:59:00,
2013-07-30 09:14:00,72.1,63.0,30.23,South,189,4.0,6.0,73,0.00,,,0.00,weatherlink.com 1.10,2013-07-30 14:14:00,
2013-07-30 09:29:00,72.4,63.0,30.23,South,178,1.0,7.0,72,0.00,,,0.00,weatherlink.com 1.10,2013-07-30 14:29:00,
2013-07-30 09:44:00,71.2,63.0,30.23,SSE,160,3.0,7.0,74,0.00,,,0.00,weatherlink.com 1.10,2013-07-30 14:44:00,
2013-07-30 09:59:00,71.2,63.0,30.23,SSE,153,3.0,7.0,75,0.00,,,0.00,weatherlink.com 1.10,2013-07-30 14:59:00,
2013-07-30 10:14:00,71.8,62.0,30.23,SW,217,2.0,7.0,72,0.00,,,0.00,weatherlink.com 1.10,2013-07-30 15:14:00,
2013-07-30 10:29:00,72.0,63.0,30.23,South,184,2.0,6.0,72,0.00,,,0.00,weatherlink.com 1.10,2013-07-30 15:29:00,
2013-07-30 10:44:00,71.7,63.0,30.23,SSE,154,1.0,8.0,73,0.00,,,0.00,weatherlink.com 1.10,2013-07-30 15:44:00,
2013-07-30 11:00:00,72.0,62.0,30.23,South,175,3.0,6.0,70,0.00,,,0.00,weatherlink.com 1.10,2013-07-30 16:00:00,
2013-07-30 11:14:00,71.9,61.0,30.23,SSE,161,0.0,6.0,69,0.00,,,0.00,weatherlink.com 1.10,2013-07-30 16:14:00,
2013-07-30 11:29:00,71.9,61.0,30.23,SSE,150,4.0,8.0,68,0.00,,,0.00,weatherlink.com 1.10,2013-07-30 16:29:00,
2013-07-30 11:44:00,71.5,62.0,30.22,SSE,149,2.0,6.0,72,0.00,,,0.00,weatherlink.com 1.10,2013-07-30 16:44:00,
2013-07-30 11:59:00,71.3,62.0,30.22,SSE,157,3.0,5.0,72,0.00,,,0.00,weatherlink.com 1.10,2013-07-30 16:59:00,
2013-07-30 12:14:00,71.7,63.0,30.21,SE,133,3.0,6.0,73,0.00,,,0.00,weatherlink.com 1.10,2013-07-30 17:14:00,
2013-07-30 12:29:00,71.7,62.0,30.21,SE,145,3.0,6.0,72,0.00,,,0.00,weatherlink.com 1.10,2013-07-30 17:29:00,
2013-07-30 12:44:00,71.4,62.0,30.21,South,175,1.0,6.0,73,0.00,,,0.00,weatherlink.com 1.10,2013-07-30 17:44:00,
2013-07-30 12:59:00,70.9,63.0,30.20,SSE,157,1.0,5.0,77,0.00,,,0.00,weatherlink.com 1.10,2013-07-30 17:59:00,
2013-07-30 13:14:00,71.2,64.0,30.20,SSE,152,3.0,4.0,77,0.00,,,0.00,weatherlink.com 1.10,2013-07-30 18:14:00,
2013-07-30 13:29:00,71.3,64.0,30.20,SSE,160,1.0,5.0,77,0.00,,,0.00,weatherlink.com 1.10,2013-07-30 18:29:00,
2013-07-30 13:44:00,71.9,62.0,30.20,SSE,168,3.0,5.0,71,0.00,,,0.00,weatherlink.com 1.10,2013-07-30 18:44:00,
2013-07-30 13:59:00,71.5,62.0,30.20,South,180,1.0,5.0,73,0.00,,,0.00,weatherlink.com 1.10,2013-07-30 18:59:00,
2013-07-30 14:14:00,71.1,62.0,30.19,South,170,1.0,6.0,74,0.00,,,0.00,weatherlink.com 1.10,2013-07-30 19:14:00,
2013-07-30 14:29:00,71.2,62.0,30.19,SSE,168,4.0,7.0,72,0.00,,,0.00,weatherlink.com 1.10,2013-07-30 19:29:00,
2013-07-30 14:44:00,71.0,62.0,30.19,South,190,2.0,8.0,74,0.00,,,0.00,weatherlink.com 1.10,2013-07-30 19:44:00,
2013-07-30 14:59:00,71.1,63.0,30.19,SSE,148,3.0,7.0,75,0.00,,,0.00,weatherlink.com 1.10,2013-07-30 19:59:00,
2013-07-30 15:29:00,70.8,63.0,30.18,SSE,165,4.0,9.0,75,0.00,,,0.00,weatherlink.com 1.10,2013-07-30 20:29:00,
2013-07-30 15:44:00,70.5,63.0,30.17,SSE,162,5.0,7.0,76,0.00,,,0.00,weatherlink.com 1.10,2013-07-30 20:44:00,
2013-07-30 15:59:00,70.4,63.0,30.17,SSE,162,1.0,8.0,76,0.00,,,0.00,weatherlink.com 1.10,2013-07-30 20:59:00,
2013-07-30 16:14:00,70.5,63.0,30.17,SSE,160,5.0,12.0,76,0.00,,,0.00,weatherlink.com 1.10,2013-07-30 21:14:00,
2013-07-30 16:29:00,70.4,63.0,30.17,SSE,153,3.0,11.0,77,0.00,,,0.00,weatherlink.com 1.10,2013-07-30 21:29:00,
2013-07-30 16:44:00,70.7,64.0,30.17,South,171,1.0,4.0,78,0.00,,,0.00,weatherlink.com 1.10,2013-07-30 21:44:00,
2013-07-30 16:59:00,70.5,63.0,30.16,SSE,168,3.0,9.0,78,0.00,,,0.00,weatherlink.com 1.10,2013-07-30 21:59:00,
2013-07-30 17:14:00,70.4,63.0,30.17,SSE,155,5.0,7.0,78,0.00,,,0.00,weatherlink.com 1.10,2013-07-30 22:14:00,
2013-07-30 17:30:00,70.2,64.0,30.16,South,169,3.0,7.0,80,0.00,,,0.00,weatherlink.com 1.10,2013-07-30 22:30:00,
2013-07-30 17:45:00,70.0,64.0,30.16,South,170,1.0,8.0,81,0.00,,,0.00,weatherlink.com 1.10,2013-07-30 22:45:00,
2013-07-30 18:00:00,69.9,64.0,30.16,SSE,168,3.0,7.0,81,0.00,,,0.00,weatherlink.com 1.10,2013-07-30 23:00:00,
2013-07-30 18:15:00,69.9,64.0,30.16,SSE,157,2.0,8.0,82,0.00,,,0.00,weatherlink.com 1.10,2013-07-30 23:15:00,
2013-07-30 18:30:00,69.7,64.0,30.15,SSE,164,2.0,7.0,82,0.00,,,0.00,weatherlink.com 1.10,2013-07-30 23:30:00,
2013-07-30 18:45:00,69.7,64.0,30.15,South,175,3.0,7.0,83,0.00,,,0.00,weatherlink.com 1.10,2013-07-30 23:45:00,
2013-07-30 19:00:00,69.7,64.0,30.15,SSE,161,4.0,5.0,83,0.00,,,0.00,weatherlink.com 1.10,2013-07-31 00:00:00,
2013-07-30 19:15:00,69.5,64.0,30.15,SSE,158,2.0,6.0,82,0.00,,,0.00,weatherlink.com 1.10,2013-07-31 00:15:00,
2013-07-30 19:30:00,69.0,64.0,30.14,SSE,151,2.0,6.0,84,0.00,,,0.00,weatherlink.com 1.10,2013-07-31 00:30:00,
2013-07-30 19:45:00,68.9,64.0,30.14,ESE,122,4.0,4.0,85,0.00,,,0.00,weatherlink.com 1.10,2013-07-31 00:45:00,
2013-07-30 20:00:00,68.6,64.0,30.14,SSE,162,1.0,4.0,85,0.00,,,0.00,weatherlink.com 1.10,2013-07-31 01:00:00,
2013-07-30 20:15:00,68.0,63.0,30.14,South,174,3.0,5.0,84,0.00,,,0.00,weatherlink.com 1.10,2013-07-31 01:15:00,
2013-07-30 20:30:00,67.9,63.0,30.14,SSE,157,0.0,3.0,84,0.00,,,0.00,weatherlink.com 1.10,2013-07-31 01:30:00,
2013-07-30 20:45:00,67.6,63.0,30.14,SSE,157,0.0,1.0,85,0.00,,,0.00,weatherlink.com 1.10,2013-07-31 01:45:00,
2013-07-30 21:00:00,67.3,63.0,30.14,SSE,157,0.0,2.0,85,0.00,,,0.00,weatherlink.com 1.10,2013-07-31 02:00:00,
2013-07-30 21:15:00,67.2,63.0,30.14,SSE,157,0.0,2.0,85,0.00,,,0.00,weatherlink.com 1.10,2013-07-31 02:15:00,
2013-07-30 21:30:00,67.2,63.0,30.15,SSE,157,0.0,1.0,85,0.00,,,0.00,weatherlink.com 1.10,2013-07-31 02:30:00,
2013-07-30 21:45:00,66.7,63.0,30.15,SSE,157,0.0,1.0,87,0.00,,,0.00,weatherlink.com 1.10,2013-07-31 02:45:00,
2013-07-30 22:00:00,66.8,63.0,30.15,SSE,157,0.0,1.0,87,0.00,,,0.00,weatherlink.com 1.10,2013-07-31 03:00:00,
2013-07-30 22:15:00,66.9,63.0,30.14,SE,126,1.0,2.0,86,0.00,,,0.00,weatherlink.com 1.10,2013-07-31 03:15:00,
2013-07-30 22:30:00,66.8,63.0,30.14,ESE,119,0.0,2.0,86,0.00,,,0.00,weatherlink.com 1.10,2013-07-31 03:30:00,
2013-07-30 22:45:00,66.8,63.0,30.14,ESE,119,1.0,3.0,86,0.00,,,0.00,weatherlink.com 1.10,2013-07-31 03:45:00,
2013-07-30 23:00:00,67.1,63.0,30.13,ESE,112,1.0,4.0,85,0.00,,,0.00,weatherlink.com 1.10,2013-07-31 04:00:00,
2013-07-30 23:15:00,67.2,63.0,30.13,SE,138,3.0,4.0,85,0.00,,,0.00,weatherlink.com 1.10,2013-07-31 04:15:00,
2013-07-30 23:30:00,67.0,62.0,30.13,SE,143,1.0,4.0,85,0.00,,,0.00,weatherlink.com 1.10,2013-07-31 04:30:00,
2013-07-30 23:45:00,67.1,63.0,30.12,ESE,115,2.0,2.0,85,0.00,,,0.00,weatherlink.com 1.10,2013-07-31 04:45:00,